SCP
0 0 0 0 0 0 0 0 0 0 0 0 0 0 0 0 0 0 0 0 0 0 0 0 0 0 0 0 0 0 0 0 0 0 0 0 0 0 0 0 0 0 0 0
0 0 0 0 0 0 0 0 0 0 0 0 0 0 0 0 0 0 0 0 0 0 0 0 0 0 0 0 0 0 0 0 0 0 0 0 0 0 0 0 0 0 0 0
0 0 0 0 0 0 0 0 0 0 0 0 0 0 0 0 0 0 0 0 0 0 0 0 0 0 0 0 0 0 0 0 0 0 0 0 0 0 0 0 0 0 0 0
0 0 0 0 0 0 0 0 0 0 0 0 0 0 0 0 0 0 0 0 0 0 0 0 0 0 0 0 0 0 0 0 0 0 0 0 0 0 0 0 0 0 0 0
0 0 0 0 0 0 0 0 0 0 0 0 0 0 0 0 0 0 0 0 0 0 0 0 0 0 0 0 0 0 0 0 0 0 0 0 0 0 0 0 0 0 0 0
0 0 0 0 0 0 0 0 0 0 0 0 0 0 0 0 0 0 0 0 0 0 0 0 0 0 0 0 0 0 0 0 0 0 0 0 0 0 0 0 0 0 0 0
0 0 0 0 0 0 0 0 0 0 0 0 0 0 0 0 0 0 0 0 0 0 0 0 0 0 0 0 0 0 0 0 0 0 0 0 0 0 0 0 0 0 0 0
0 0 0 0 0 0 0 0 0 0 0 0 0 0 0 0 0 0 0 0 0 0 0 0 0 0 0 0 0 0 0 0 0 0 0 0 0 0 0 0 0 0 0 0
0 0 0 0 0 0 0 0 0 0 0 0 0 0 0 0 0 0 0 0 0 0 0 0 0 0 0 0 0 0 0 0 0 0 0 0 0 0 0 0 0 0 0 0
0 0 0 0 0 0 0 0 0 0 0 0 0 0 0 0 0 0 0 0 0 0 0 0 0 0 0 0 0 0 0 0 0 0 0 0 0 0 0 0 0 0 0 0
0 0 0 0 0 0 0 0 0 0 0 0 0 0 0 0 0 0 0 0 0 0 0 0 0 0 0 0 0 0 0 0 0 0 0 0 0 0 0 0 0 0 0 0
0 0 0 0 0 0 0 0 0 0 0 0 0 0 0 0 0 0 0 0 0 0 0 0 0 0 0 0 0 0 0 0 0 0 0 0 0 0 0 0 0 0 0 0
0 0 0 0 0 0 0 0 0 0 0 0 0 0 0 0 0 0 0 0 0 0 0 0 0 0 0 0 0 0 0 0 0 0 0 0 0 0 0 0 0 0 0 0
0 0 0 0 0 0 0 0 0 0 0 0 0 0 0 0 0 0 0 0 0 0 0 0 0 0 0 0 0 0 0 0 0 0 0 0 0 0 0 0 0 0 0 0
0 0 0 0 0 0 0 0 0 0 0 0 0 0 0 0 0 0 0 0 0 0 0 0 0 0 0 0 0 0 0 0 0 0 0 0 0 0 0 0 0 0 0 0
0 0 0 0 0 0 0 0 0 0 0 0 0 0 0 0 0 0 0 0 0 0 0 0 0 0 0 0 0 0 0 0 0 0 0 0 0 0 0 0 0 0 0 0
0 0 0 0 0 0 0 0 0 0 0 0 0 0 0 0 0 0 0 0 0 0 0 0 0 0 0 0 0 0 0 0 0 0 0 0 0 0 0 0 0 0 0 0
0 0 0 0 0 0 0 0 0 0 0 0 0 0 0 0 0 0 0 0 0 0 0 0 0 0 0 0 0 0 0 0 0 0 0 0 0 0 0 0 0 0 0 0
0 0 0 0 0 0 0 0 0 0 0 0 0 0 0 0 0 0 0 0 0 0 0 0 0 0 0 0 0 0 0 0 0 0 0 0 0 0 0 0 0 0 0 0
0 0 0 0 0 0 0 0 0 0 0 0 0 0 0 0 0 0 0 0 0 0 0 0 0 0 0 0 0 0 0 0 0 0 0 0 0 0 0 0 0 0 0 0
0 0 0 0 0 0 0 0 0 0 0 0 0 0 0 0 0 0 0 0 0 0 0 0 0 0 0 0 0 0 0 0 0 0 0 0 0 0 0 0 0 0 0 0
0 0 0 0 0 0 0 0 0 0 0 0 0 0 0 0 0 0 0 0 0 0 0 0 0 0 0 0 0 0 0 0 0 0 0 0 0 0 0 0 0 0 0 0
0 0 0 0 0 0 0 0 0 0 0 0 0 0 0 0 0 0 0 0 0 0 0 0 0 0 0 0 0 0 0 0 0 0 0 0 0 0 0 0 0 0 0 0
0 0 0 0 0 0 0 0 0 0 0 0 0 0 0 0 0 0 0 0 0 0 0 0 0 0 0 0 0 0 0 0 0 0 0 0 0 0 0 0 0 0 0 0
0 0 0 0 0 0 0 0 0 0 0 0 0 0 0 0 0 0 0 0 0 0 0 0 0 0 0 0 0 0 0 0 0 0 0 0 0 0 0 0 0 0 0 0
0 0 0 0 0 0 0 0 0 0 0 0 0 0 0 0 0 0 0 0 0 0 0 0 0 0 0 0 0 0 0 0 0 0 0 0 0 0 0 0 0 0 0 0
0 0 0 0 0 0 0 0 0 0 0 0 0 0 0 0 0 0 0 0 0 0 0 0 0 0 0 0 0 0 0 0 0 0 0 0 0 0 0 0 0 0 0 0
Wind_Speed
2 2 5 4 3 3 3 2 4 6 6 5 4 6 8 8 9 9 10 10 10 10 9 9 9 9 9 10 11 11 12 12 13 14 14 13 12 11 11 11 12 11 10 9
2 3 5 4 3 1 0 2 3 4 6 5 5 5 7 10 10 9 10 10 10 11 10 10 10 10 10 10 11 11 12 13 13 13 13 13 13 12 11 11 11 10 10 10
2 3 1 2 2 2 3 4 4 6 7 6 8 8 8 9 9 9 11 11 11 11 11 11 11 11 11 11 11 11 12 13 13 13 13 13 14 13 11 10 10 10 10 10
2 2 3 5 3 3 4 6 6 6 7 8 10 9 9 9 7 9 10 10 10 10 11 11 11 12 12 12 12 12 13 13 13 13 14 13 13 13 12 9 8 8 9 9
3 0 4 3 3 2 3 7 6 6 8 7 7 7 6 6 5 7 8 10 11 12 13 11 12 12 12 13 13 14 14 14 14 14 14 14 14 12 11 9 8 8 7 9
4 1 4 6 3 1 2 6 5 5 7 7 5 6 7 6 7 9 10 10 11 12 12 12 12 12 13 14 14 14 14 14 14 14 14 14 13 12 10 9 9 8 8 8
3 3 7 5 1 2 1 7 3 4 5 5 4 7 8 9 8 9 11 13 12 12 12 12 12 12 13 14 14 14 14 14 14 13 13 13 11 10 9 8 7 7 7 7
4 2 7 4 5 5 8 3 2 4 5 6 7 8 8 8 9 11 12 12 11 11 13 13 12 12 14 14 14 14 14 14 14 13 12 10 9 8 7 6 6 5 6 6
8 8 5 4 7 5 5 4 4 4 5 5 6 6 7 7 9 11 12 11 11 12 14 13 12 11 14 14 14 14 14 14 13 13 10 9 8 7 6 4 4 4 5 5
3 6 5 5 4 3 5 5 4 4 5 4 5 7 8 9 9 10 10 12 11 12 14 14 13 13 13 13 13 13 13 12 11 11 10 8 6 5 4 3 3 4 5 5
5 5 3 6 7 6 4 4 4 4 4 5 6 7 8 8 10 10 11 10 10 12 13 15 14 14 13 12 12 13 12 11 10 9 9 7 6 5 5 4 4 4 4 4
9 8 7 7 6 7 6 6 5 4 4 4 5 7 7 8 8 10 11 11 12 12 13 14 14 14 13 11 11 11 10 10 7 7 7 6 6 6 4 4 4 5 5 4
6 5 6 3 4 6 6 6 5 4 5 5 5 6 6 7 7 10 11 11 12 13 14 14 14 14 13 12 11 11 10 9 7 6 6 6 5 5 5 4 4 4 1 2
5 6 4 5 6 6 5 3 2 2 4 5 5 6 7 7 9 10 11 12 12 13 13 13 14 14 13 12 11 11 10 9 8 5 5 5 5 4 3 3 2 2 4 5
8 7 6 5 5 4 3 2 2 4 5 5 5 6 7 8 10 11 11 12 12 13 13 13 14 14 14 12 11 10 8 7 6 5 4 4 4 4 3 2 2 1 2 3
8 5 4 5 6 6 4 4 4 5 5 5 6 7 8 8 9 10 10 10 11 13 14 14 14 15 14 12 11 8 6 10 8 4 4 4 4 3 3 2 2 1 1 2
10 7 7 7 7 7 6 6 6 6 5 6 7 7 7 8 9 10 11 11 10 11 11 12 14 15 14 12 10 6 6 7 9 5 4 3 3 3 2 2 2 1 1 2
10 10 9 8 7 7 7 6 5 5 5 5 6 6 7 8 10 11 12 13 12 11 9 12 15 16 14 12 9 6 4 4 4 4 3 3 3 2 2 2 1 1 1 2
7 8 8 8 7 7 6 6 6 5 5 4 4 5 6 7 8 9 10 11 11 13 15 17 21 16 14 15 14 5 5 4 4 3 3 3 3 2 2 2 1 1 1 1
7 7 8 7 7 6 6 5 5 4 4 3 3 5 6 7 8 9 9 7 6 8 13 16 15 13 14 14 15 6 5 4 4 3 3 3 3 3 2 2 1 1 1 1
9 8 8 8 7 6 6 5 5 5 4 3 3 5 6 7 7 8 8 8 8 10 13 14 11 12 13 14 13 7 6 5 3 2 2 2 2 2 2 2 2 1 1 2
9 9 9 8 7 6 5 4 4 4 3 3 3 4 5 6 7 7 6 6 9 13 11 9 10 15 18 15 9 8 7 6 4 3 2 2 1 1 1 2 2 2 2 2
8 8 8 8 8 6 4 4 5 4 3 3 3 4 4 5 5 5 7 7 8 13 10 8 15 20 19 10 9 9 9 8 7 5 3 2 1 1 0 1 1 2 2 3
8 8 8 7 6 5 6 6 5 4 3 2 2 3 3 4 4 3 5 9 11 13 9 10 15 18 14 8 9 9 9 9 8 7 5 3 1 1 1 1 1 2 2 3
9 9 8 8 8 8 8 6 5 4 3 2 2 2 2 2 3 5 7 8 11 11 9 10 13 14 10 9 9 9 8 9 9 8 7 6 4 2 0 1 2 2 1 2
8 9 9 10 9 7 6 6 5 4 4 3 2 2 2 3 4 5 5 8 10 11 9 8 9 10 9 9 9 9 9 9 9 8 9 8 7 5 3 1 2 2 2 2
7 6 6 6 6 6 6 7 7 6 6 4 3 1 2 3 3 4 6 6 7 8 8 8 8 8 9 9 9 9 8 8 8 8 8 8 7 6 5 4 2 1 1 2
Wind_Direction
59 71 99 92 67 63 98 174 213 257 262 255 269 284 287 289 294 302 301 299 297 296 295 295 298 300 301 301 303 303 301 297 292 289 287 282 274 263 253 242 235 228 224 225
61 69 89 78 34 36 119 251 252 271 272 250 281 294 288 287 292 295 295 299 301 301 302 304 304 304 302 301 301 300 298 295 294 293 291 288 282 274 261 248 239 228 220 220
189 215 350 277 238 242 246 234 220 238 254 289 298 293 281 285 295 295 300 303 302 302 301 302 302 302 301 297 297 296 294 294 294 293 291 290 290 285 273 258 243 231 224 216
120 90 256 250 232 221 237 240 217 232 258 276 271 275 276 276 281 289 293 295 298 299 301 300 297 298 297 298 298 298 296 295 294 293 292 290 287 284 275 263 247 236 229 218
105 165 288 258 224 198 234 269 217 234 264 275 293 315 291 273 279 283 290 296 298 300 300 298 299 300 302 303 303 302 301 298 297 293 290 288 285 280 276 265 253 237 230 221
117 172 248 246 212 161 154 286 224 229 270 287 321 326 284 292 309 303 302 299 300 300 299 300 302 305 308 309 307 305 305 302 299 295 290 287 283 277 273 263 254 242 232 223
151 223 262 242 166 95 193 264 226 233 263 274 251 239 269 301 300 294 294 297 300 302 306 307 308 310 310 309 308 307 306 303 300 297 292 288 282 277 271 261 247 236 231 226
156 209 264 202 145 186 221 237 246 253 260 265 263 272 286 294 295 300 303 303 305 306 310 311 311 312 311 310 309 308 308 306 303 300 297 299 290 286 278 262 246 234 230 232
187 211 238 201 201 213 183 211 242 247 264 273 279 284 290 289 292 298 300 304 307 309 312 313 314 312 310 310 312 312 311 310 310 309 305 301 296 289 282 261 237 225 223 229
238 259 240 230 230 220 196 213 240 257 273 271 273 280 286 287 292 300 302 309 310 313 315 316 317 315 310 310 313 314 315 315 316 316 314 310 303 293 280 258 245 230 219 223
244 267 258 252 232 219 215 232 262 275 264 261 267 275 278 287 297 302 307 308 309 313 314 315 317 317 315 314 316 318 318 318 320 320 319 317 311 298 285 261 246 234 218 211
218 215 193 232 224 196 206 234 248 256 266 266 258 268 283 291 295 301 306 309 313 314 315 316 318 316 316 318 320 321 322 323 323 323 322 322 322 323 312 289 283 257 240 224
204 185 182 219 189 185 201 227 239 243 256 272 276 275 286 291 292 301 306 312 315 316 315 316 317 317 320 323 322 321 321 320 319 323 326 327 329 331 335 356 38 48 19 236
173 136 163 196 198 201 205 221 237 265 276 273 274 284 291 290 297 308 312 314 314 314 315 317 320 322 324 323 321 320 320 319 324 320 322 323 325 326 327 337 4 29 35 38
186 179 188 196 191 190 197 210 245 278 283 286 281 288 296 302 307 310 311 313 316 319 322 325 326 326 326 323 319 318 319 316 316 319 322 323 327 332 340 357 26 33 43 48
179 181 178 180 194 207 212 226 242 262 272 277 285 292 298 301 302 305 308 314 322 324 323 325 326 325 325 324 321 316 315 323 332 329 332 336 341 349 358 17 32 32 41 52
153 186 199 208 214 215 217 221 227 245 262 273 281 295 306 312 316 319 323 324 319 313 314 322 325 326 326 327 324 315 312 320 334 338 337 336 341 350 354 6 20 39 44 54
184 185 179 183 193 207 221 228 233 243 252 264 288 305 313 316 316 318 321 323 324 324 330 334 332 330 329 330 328 314 308 312 322 326 329 335 338 343 352 2 26 58 71 81
183 180 184 188 185 185 200 218 229 237 254 270 290 300 302 302 304 309 316 323 330 337 338 335 330 331 332 333 335 318 312 314 324 333 337 345 357 2 6 8 19 40 102 113
185 182 182 186 183 183 199 215 222 235 249 259 284 301 308 310 313 317 319 313 313 322 325 326 328 333 335 333 335 326 321 314 315 328 342 355 3 8 14 17 26 61 97 113
188 181 180 185 193 200 206 208 209 229 245 256 276 293 299 305 314 321 323 326 329 333 332 329 335 338 336 332 329 333 332 324 320 320 329 342 358 11 23 28 30 49 79 99
186 181 185 186 191 206 214 207 208 221 235 261 283 299 309 314 320 319 306 305 321 331 334 335 339 338 337 336 340 344 345 342 334 323 314 319 338 7 34 42 43 49 64 86
183 181 183 188 195 202 206 204 206 208 222 246 274 294 302 304 309 318 325 323 327 332 334 334 334 338 342 346 349 351 353 352 347 340 327 307 288 288 59 70 77 83 80 88
180 182 188 186 174 185 209 214 200 197 206 230 259 284 299 310 310 298 303 314 325 330 333 331 334 341 347 353 354 355 356 355 352 349 348 342 329 276 191 150 125 115 108 106
184 181 179 179 189 209 213 194 176 181 187 219 265 299 309 292 292 308 318 326 332 335 336 336 340 346 356 357 358 358 358 356 353 350 353 355 356 351 310 165 157 146 132 121
190 191 195 201 205 202 186 170 172 176 175 202 244 282 311 314 313 317 328 335 339 339 342 345 349 354 359 359 359 360 360 357 356 357 356 357 360 6 14 55 140 153 156 157
206 202 200 209 208 188 175 173 175 177 176 180 203 242 302 316 324 336 345 347 347 345 346 349 353 357 358 359 0 2 3 2 1 359 357 358 359 360 3 14 30 79 127 143